COSMOS 2251 DEB, 34680

Orbit data source: Space-Track

COSMOS 2251 DEB, 34680 is space debris in LEO originally from a launch on Wed, 16 Jun 1993 UTC launched from the Plesetsk Missile And Space Complex (PKMTR). The debris from Iridium 33, an American commercial communications satellite, has been tracked extensively since its accidental collision with the defunct Russian satellite Cosmos 2251 in 2009. This event, occurring at high speed in low Earth orbit (LEO), generated thousands of pieces of space debris, significantly increasing the risk of further collisions. The Iridium 33 debris cloud has impacted space traffic management and orbital debris mitigation strategies, making it a subject of ongoing study in space situational awareness.

Loading next visibility...
Identifier
34680, 1993-036YA
Orbit
LEO
Country
Flag of CISCIS
Related business
Manufacturer
Unknown
Mission
Spacecraft
Bus & Motor
Unknown
Mass
Unknown
Launch date (UTC)
1993-06-16 (33 years ago)
Launch vehicle
Unknown
Launch site
Plesetsk Missile And Space Complex (PKMTR)
Object type
Payload
Rocket body
Debris
Shape & HBR
Unknown shape, 0.1 m
Radar Cross Section
Small (<0.1 m²)

Expand to show TLE details & history
Last TLE update: 21 hours ago

TLE from 21 hours ago
0 COSMOS 2251 DEB
1 34680U 93036YA  26119.54074116  .00004033  00000-0  80799-3 0  9995
2 34680  74.0432 226.4148 0007266 285.0323  90.2508 14.62085520903418
Epoch: 2026-04-29T12:58Z
TLE epoch observation values (Epoch: 2026-04-29T12:58:40.036Z)
Latitude
14.73994°
Longitude
178.53865°
Altitude
688.4 km
Speed
7.514 km/s
True Right ascension
15h 22m 49s
True Declination
14° 39' 17"
Sunlit
Object was in full shadow at epoch
Visualization orbit readout
Latitude
Unknown
Longitude
Unknown
Altitude
Unknown
Speed
Unknown
Apparent Right ascension
Unknown
Apparent Declination
Unknown
Sunlit
N/A
Visualization observer readout
Local Sidereal Time
17:27:39
Azimuth
Unknown
Elevation
Unknown
Doppler factor
Unknown
Orbital elements
Apogee altitude
689.174 km
Perigee altitude
678.911 km
Semi-major axis
7,062.18 km
Eccentricity
0.00073
Inclination
74.0432°
RAAN
226.4148°
Arg. of periapsis
285.0323°
True anomaly
90.33406°
Mean anomaly
90.2508°
Eccentric anomaly
90.29243°
Mean motion
3.65708 °/min
Orbital period
98.44 mins
BSTAR
0.00080799
Loading maneuver chart data...
Computing Atmospheric mass density...

Documentation

Showing up to 5 results
|